Date String (YYYY-MM-DD hh:mm:ss) UTC,Instrument flags,absolute air pressure of the measurement (hPa),sample flow rate (lpm),inlet stack bypass flow (lpm),air temperature of the measurement (°C),ambient temperature measured by the external sensor (°C),aerosol sample conditioner tube jacket temperature (°C),OPC LED temperature (°C),internal box temperature (°C),relative humidity of the measurement (%),span deviation,mass concentration of particles derived from Lorenz-Mie calculation of OPC scattering (μg/m³),mass concentration of particles derived from Lorenz-Mie calculation of OPC scattering (μg/m³),mass concentration of particles derived from Lorenz-Mie calculation of OPC scattering (μg/m³)
DateTimeUTC,F1_M11,P_M11,Q1_M11,Q2_M11,T1_M11,T2_M11,T3_M11,T4_M11,T5_M11,U1_M11,ZSPAN_M11,X2_M11,X0_M11,X1_M11
2023-07-19 16:00:00,SystemResetWarning,0835.8,5.00,000.00,029.1,027.4,000.0,037.5,030.7,27.6,0000.0,0004.19,0012.08,0003.48
2023-07-19 16:01:00,SystemResetWarning,0835.7,5.00,000.00,029.1,027.6,000.0,037.5,030.8,26.6,0000.0,0004.17,0010.88,0003.48
2023-07-19 16:02:00,SystemResetWarning,0835.7,5.00,000.00,029.1,027.8,000.0,037.5,030.9,26.3,0000.0,0004.14,0011.52,0003.48
2023-07-19 16:03:00,SystemResetWarning,0835.6,5.00,000.00,029.2,028.0,000.0,037.6,030.9,26.8,0000.0,0004.14,0011.51,0003.49
2023-07-19 16:04:00,SystemResetWarning,0835.6,4.99,000.00,029.2,027.9,000.0,037.6,031.0,26.7,0000.0,0004.14,0010.41,0003.51
2023-07-19 16:05:00,SystemResetWarning,0835.6,4.99,000.00,029.2,026.5,000.0,037.5,030.8,26.2,0000.0,0004.23,0009.73,0003.53
2023-07-19 16:06:00,SystemResetWarning,0835.6,5.01,000.00,029.2,025.7,000.0,037.4,030.7,27.0,0000.0,0004.32,0010.31,0003.55
2023-07-19 16:07:00,SystemResetWarning,0835.6,5.00,000.00,029.1,025.9,000.0,037.4,030.5,26.8,0000.0,0004.33,0009.88,0003.57
2023-07-19 16:08:00,SystemResetWarning,0835.6,4.99,000.00,029.1,026.2,000.0,037.4,030.5,29.5,0000.0,0004.36,0010.41,0003.59
2023-07-19 16:09:00,SystemResetWarning,0835.6,5.00,000.00,029.1,026.6,000.0,037.5,030.6,30.6,0000.0,0004.42,0010.53,0003.61
2023-07-19 16:10:00,SystemResetWarning,0835.6,5.00,000.00,029.1,026.9,000.0,037.5,030.7,31.1,0000.0,0004.43,0010.64,0003.63
2023-07-19 16:11:00,SystemResetWarning,0835.6,5.01,000.00,029.1,027.2,000.0,037.5,030.7,30.2,0000.0,0004.49,0010.64,0003.66
2023-07-19 16:12:00,SystemResetWarning,0835.6,4.99,000.00,029.1,027.5,000.0,037.5,030.8,30.0,0000.0,0004.61,0010.88,0003.68
2023-07-19 16:13:00,SystemResetWarning,0835.7,4.99,000.00,029.2,027.7,000.0,037.6,030.9,28.4,0000.0,0004.63,0010.55,0003.70
2023-07-19 16:14:00,SystemResetWarning,0835.7,4.99,000.00,029.2,027.8,000.0,037.6,030.9,27.8,0000.0,0004.61,0010.52,0003.70
2023-07-19 16:15:00,SystemResetWarning,0835.7,5.00,000.00,029.2,026.5,000.0,037.5,030.8,30.0,0000.0,0004.67,0011.14,0003.71
2023-07-19 16:16:00,SystemResetWarning,0835.8,5.00,000.00,029.1,025.1,000.0,037.4,030.6,29.3,0000.0,0004.67,0011.28,0003.70
2023-07-19 16:17:00,SystemResetWarning,0835.8,5.01,000.00,029.1,024.9,000.0,037.3,030.4,30.5,0000.0,0004.67,0010.79,0003.70
2023-07-19 16:18:00,SystemResetWarning,0835.8,5.01,000.00,029.0,025.2,000.0,037.3,030.3,32.4,0000.0,0004.66,0010.90,0003.71
2023-07-19 16:19:00,SystemResetWarning,0835.8,4.99,000.00,028.9,025.6,000.0,037.4,030.3,33.3,0000.0,0004.66,0011.06,0003.70
2023-07-19 16:20:00,SystemResetWarning,0835.8,5.00,000.00,028.9,026.1,000.0,037.4,030.4,33.1,0000.0,0004.69,0011.92,0003.71
2023-07-19 16:21:00,SystemResetWarning,0835.8,5.01,000.00,028.9,026.5,000.0,037.4,030.5,33.6,0000.0,0004.76,0012.82,0003.72
2023-07-19 16:22:00,SystemResetWarning,0835.8,5.00,000.00,029.0,026.8,000.0,037.4,030.6,34.4,0000.0,0004.74,0013.52,0003.71
2023-07-19 16:23:00,SystemResetWarning,0835.8,4.99,000.00,029.0,027.2,000.0,037.4,030.6,33.0,0000.0,0004.68,0014.64,0003.72
2023-07-19 16:24:00,SystemResetWarning,0835.8,4.99,000.00,029.0,027.4,000.0,037.5,030.7,32.7,0000.0,0004.71,0014.20,0003.74
2023-07-19 16:25:00,SystemResetWarning,0835.8,5.00,000.00,029.1,027.6,000.0,037.5,030.8,34.0,0000.0,0004.77,0014.35,0003.75
2023-07-19 16:26:00,SystemResetWarning,0835.8,5.00,000.00,029.1,027.8,000.0,037.5,030.8,33.7,0000.0,0004.77,0014.24,0003.76
2023-07-19 16:27:00,SystemResetWarning,0835.8,5.01,000.00,029.2,028.0,000.0,037.5,030.9,33.8,0000.0,0004.75,0014.23,0003.76
2023-07-19 16:28:00,SystemResetWarning,0835.8,4.99,000.00,029.2,027.2,000.0,037.5,030.9,34.0,0000.0,0004.76,0015.59,0003.78
2023-07-19 16:29:00,SystemResetWarning,0835.8,5.00,000.00,029.1,025.5,000.0,037.3,030.6,32.4,0000.0,0004.78,0016.47,0003.79
2023-07-19 16:30:00,SystemResetWarning,0835.8,5.01,000.00,029.0,024.8,000.0,037.2,030.3,31.3,0000.0,0004.81,0015.88,0003.82
2023-07-19 16:31:00,SystemResetWarning,0835.8,5.01,000.00,028.9,025.0,000.0,037.3,030.2,31.2,0000.0,0004.79,0015.88,0003.85
2023-07-19 16:32:00,SystemResetWarning,0835.8,5.01,000.00,028.9,025.4,000.0,037.3,030.2,31.0,0000.0,0004.73,0015.06,0003.87
2023-07-19 16:33:00,SystemResetWarning,0835.8,4.99,000.00,028.9,025.9,000.0,037.3,030.3,30.9,0000.0,0004.77,0014.46,0003.89
2023-07-19 16:34:00,SystemResetWarning,0835.8,4.99,000.00,028.9,026.3,000.0,037.3,030.4,33.0,0000.0,0004.79,0013.57,0003.91
2023-07-19 16:35:00,SystemResetWarning,0835.8,5.00,000.00,028.9,026.7,000.0,037.4,030.5,33.4,0000.0,0004.80,0013.82,0003.94
2023-07-19 16:36:00,SystemResetWarning,0835.9,4.98,000.00,028.9,027.0,000.0,037.4,030.6,34.7,0000.0,0004.82,0014.92,0003.96
2023-07-19 16:37:00,SystemResetWarning,0835.9,5.04,000.00,029.0,027.3,000.0,037.4,030.7,34.3,0000.0,0004.89,0015.46,0003.99
2023-07-19 16:38:00,SystemResetWarning,0835.9,4.97,000.00,029.2,027.6,000.0,037.4,030.8,33.5,0000.0,0004.96,0015.69,0004.02
2023-07-19 16:39:00,SystemResetWarning,0835.9,5.01,000.00,029.3,027.8,000.0,037.4,030.9,33.7,0000.0,0005.01,0014.63,0004.05
2023-07-19 16:40:00,SystemResetWarning,0835.9,5.01,000.00,029.4,027.9,000.0,037.5,030.9,34.2,0000.0,0005.07,0013.76,0004.08
2023-07-19 16:41:00,SystemResetWarning,0835.9,4.99,000.00,029.5,028.1,000.0,037.5,031.0,33.5,0000.0,0005.09,0014.26,0004.09
2023-07-19 16:42:00,SystemResetWarning,0835.9,4.98,000.00,029.5,027.0,000.0,037.5,030.9,33.6,0000.0,0005.06,0014.12,0004.08
2023-07-19 16:43:00,SystemResetWarning,0835.9,5.01,000.00,029.4,025.3,000.0,037.4,030.7,32.2,0000.0,0005.10,0014.36,0004.09
2023-07-19 16:44:00,SystemResetWarning,0835.9,5.00,000.00,029.4,024.8,000.0,037.3,030.5,34.0,0000.0,0005.11,0014.49,0004.09
2023-07-19 16:45:00,SystemResetWarning,0835.9,5.02,000.00,029.3,025.0,000.0,037.4,030.3,34.1,0000.0,0005.08,0014.47,0004.10
2023-07-19 16:46:00,SystemResetWarning,0835.9,4.99,000.00,029.2,025.5,000.0,037.4,030.3,32.8,0000.0,0005.08,0015.12,0004.10
2023-07-19 16:47:00,SystemResetWarning,0835.9,4.99,000.00,029.2,026.0,000.0,037.5,030.4,32.6,0000.0,0005.07,0014.32,0004.10
2023-07-19 16:48:00,SystemResetWarning,0835.9,5.01,000.00,029.3,026.4,000.0,037.5,030.5,31.4,0000.0,0005.05,0014.31,0004.11
2023-07-19 16:49:00,SystemResetWarning,0835.9,5.01,000.00,029.3,026.8,000.0,037.5,030.6,31.0,0000.0,0005.06,0015.13,0004.12
2023-07-19 16:50:00,SystemResetWarning,0835.9,5.00,000.00,029.3,027.1,000.0,037.6,030.7,30.5,0000.0,0005.11,0015.69,0004.15
2023-07-19 16:51:00,SystemResetWarning,0835.9,4.99,000.00,029.3,027.4,000.0,037.6,030.7,30.4,0000.0,0005.14,0017.13,0004.16
2023-07-19 16:52:00,SystemResetWarning,0835.9,5.00,000.00,029.4,027.6,000.0,037.6,030.8,29.8,0000.0,0005.21,0017.86,0004.17
2023-07-19 16:53:00,SystemResetWarning,0835.9,5.00,000.00,029.4,027.8,000.0,037.7,030.9,28.6,0000.0,0005.26,0018.69,0004.20
2023-07-19 16:54:00,SystemResetWarning,0835.9,5.00,000.00,029.5,028.0,000.0,037.7,030.9,27.9,0000.0,0005.32,0019.06,0004.23
2023-07-19 16:55:00,SystemResetWarning,0835.9,4.99,000.00,029.5,027.6,000.0,037.6,031.0,26.9,0000.0,0005.33,0019.37,0004.24
2023-07-19 16:56:00,SystemResetWarning,0835.9,5.00,000.00,029.5,025.9,000.0,037.5,030.7,27.1,0000.0,0005.37,0020.45,0004.24
2023-07-19 16:57:00,SystemResetWarning,0835.9,5.01,000.00,029.4,025.0,000.0,037.5,030.5,28.7,0000.0,0005.43,0020.57,0004.24
2023-07-19 16:58:00,SystemResetWarning,0835.9,5.01,000.00,029.3,025.1,000.0,037.5,030.4,30.5,0000.0,0005.49,0020.52,0004.25
2023-07-19 16:59:00,SystemResetWarning,0835.9,4.99,000.00,029.2,025.5,000.0,037.5,030.3,30.6,0000.0,0005.48,0020.00,0004.24
